Location: Newark
(15.5700°N, 75.3700°E)
Time: 20:20:27
(UTC+00:00)

ISS - Pass Details

Date: 17 November 2019
Orbit: 411 x 421 km, 51.6° (Epoch: 07 December)

Event Time Altitude Azimuth Distance (km) Brightness Sun altitude
Exits shadow 23:25:33 51° 95° (E) 532 -3.0 -23.1°
Drops below altitude 10° 23:28:20 10° 133° (SE) 1,489 -0.1 -22.4°
Sets 23:30:26 0° 137° (SE) 2,349 1.0 -21.9°
